Starlink 31000

operational
NORAD ID: 58488 Int'l Des: 2023-186 Owner: SPXS Country: US Constellation: starlink
LEOCIRCULAR

Starlink 31000について

説明を読み込み中...

リアルタイム位置

3D地球を読み込み中...

次回通過

高度履歴

Altitude vs Time

uPlot chart will show altitude changes over time

軌道要素

1 58488U 23186R 25258.79516927 .00000474 00000-0 50180-4 0 9994
2 58488 43.0034 297.7068 0001540 272.1701 87.8965 15.02534326 99538
Epoch: Sep 15, 2025 • Age: 23 hours

現在のステータス

高度 562.3 km
速度 7.59 km/s
衛星直下点 39.31°N, 91.68°E
打ち上げ日 Dec 3, 2023
運用期間 1.7 years
タイプ internet

技術仕様

分類 Payload
質量 730.00 kg
乾燥質量 700.00 kg
総質量 730.00 kg
長さ 0.30 m
直径 4.10 m
スパン 29.00 m
形状 Box + pan
製造者 SPXS
バスタイプ Starlink V2M
フェーズステータス In Orbit
所有者/国 SPXS/US

大規模コンステレーション

Loading constellations...